Find Starlink 5193

NORAD ID: 54095 Int'l Des: 2022-136 Owner: SPXS Country: US Constellation: starlink operational
LEOCIRCULAR

Live Position

Loading 3D Globe...

About Starlink 5193

Description loading...

Upcoming Passes

Passes for default location (London). Set your location on the main map for personalized predictions.

Altitude History

Loading altitude history...

Two-Line Element Set

1 54095U 22136AW 26104.49210821 -.00000405 00000-0 -73544-5 0 9996
2 54095 53.2167 173.0689 0000997 84.2102 275.9004 15.08834898192390
Epoch: Apr 14, 2026 • Age: 10 hours

Current Status

Altitude 543.8 km
Velocity 7.60 km/s
Sub-Earth Point 45.05°N, 51.99°E
Launch Date Oct 20, 2022
Age 3.4 years
Type internet

Technical Details

Classification Payload
Mass 305.00 kg
Dry Mass 290.00 kg
Total Mass 305.00 kg
Length 0.20 m
Diameter 2.80 m
Span 9.00 m
Shape Box + pan
Manufacturer SPXS
Bus Type Starlink
Phase Status In Orbit
Owner/State SPXS/US

Most Searched